Location: Milton
(43.5183°N, 79.8775°W)
Time: 21:52:23
(UTC+00:00)

ESTCUBE 1 - Pass Details

Date: 02 April 2023
Orbit: 640 x 654 km, 97.9° (Epoch: 28 May)

Event Time Altitude Azimuth Distance (km) Brightness Sun altitude
Exits shadow 01:47:53 12° 45° (NE) 1,952 ? -21.6°
Drops below altitude 10° 01:48:43 10° 34° (NE) 2,075 ? -21.8°
Sets 01:52:07 0° 7° (N) 2,991 ? -22.3°
